Location: Bakov nad Jizerou
(50.4784°N, 14.9394°E)
Time: 15:11:44
(UTC+00:00)

Cosmos 1536 Rocket - Visible Passes

Search period start: 17 October 2021 00:00
Search period end: 27 October 2021 00:00
Orbit: 604 x 633 km, 82.5° (Epoch: 16 October)

Date Brightness Start Highest point End Pass type
(mag) Time Alt. Az. Time Alt. Az. Time Alt. Az.
17 Oct 7.0 04:11:39 10° ESE 04:13:44 13° E 04:15:50 10° NE visible
17 Oct 6.3 17:28:41 10° NW 17:32:02 22° W 17:35:21 10° SW visible
18 Oct 6.5 04:27:18 10° SE 04:30:42 22° E 04:34:05 10° NE visible
18 Oct 7.0 17:46:58 10° NW 17:48:58 13° W 17:50:59 10° WSW visible
19 Oct 5.4 04:43:42 10° SSE 04:47:45 36° E 04:51:47 10° NNE visible
19 Oct 4.2 16:24:41 10° NNW 16:28:59 62° W 16:33:14 10° S visible
20 Oct 5.4 16:42:08 10° NNW 16:46:06 35° W 16:50:02 10° SSW visible
21 Oct 7.0 03:42:39 10° ESE 03:44:51 14° E 03:47:02 10° NE visible
21 Oct 6.5 16:59:52 10° NW 17:03:08 21° W 17:06:24 10° SW visible
22 Oct 6.3 03:58:23 10° SE 04:01:49 23° E 04:05:14 10° NE visible
22 Oct 7.0 17:18:13 10° NW 17:20:05 13° W 17:21:57 10° WSW visible
23 Oct 5.2 04:14:48 10° SSE 04:18:52 38° E 04:22:55 10° NNE visible
24 Oct 4.0 04:31:39 10° S 04:36:00 66° E 04:40:21 10° NNE visible
25 Oct 6.8 03:13:40 10° ESE 03:15:57 14° E 03:18:15 10° NE visible
25 Oct 3.5 04:48:51 10° SSW 04:53:14 72° WNW 04:57:36 10° N visible
25 Oct 6.5 16:31:02 10° NW 16:34:14 20° W 16:37:26 10° SW visible
26 Oct 6.1 03:29:27 10° SE 03:32:55 23° E 03:36:23 10° NE visible
26 Oct 3.9 05:06:24 10° SW 05:10:34 41° WNW 05:14:43 10° N visible
26 Oct 6.9 16:49:27 10° WNW 16:51:10 12° W 16:52:54 10° WSW visible
